x

St. Joseph, Mi (sjom4) Weather Station

12:00am - Mon 26th Sep 2016 All times are CDT. -5 hours from GMT.

  • Wind
    16mph, 23mph gusts
  • Air Temp 69°f
  • Sea Pressure 1014.2mb
  • St. Joseph, Mi
  • St. Joseph, Mi

More Historic Weather Station data

Upgrade to MSW Pro to gain access to the past 30 days of data for over 8000 Wavebouys and Weather Stations around the globe.

Join Pro

Comparision Forecast

View Surf forecast
   
Mon 09/26 12:00am 16 23 mph 1014.2mb 69f
Sun 09/25 11:53pm 15 23 mph 1014.6mb 69f
11:50pm 15 21 mph 1014.2mb 69f
11:40pm 16 23 mph 1014.2mb 69f
11:30pm 14 22 mph 1014.2mb 69f
11:20pm 17 23 mph 1013.9mb 69f
11:10pm 14 17 mph 1013.5mb 70f
11:00pm 11 17 mph 1013.2mb 69f
10:50pm 14 18 mph 1012.9mb 70f
10:40pm 14 20 mph 1013.2mb 73f
10:30pm 9 14 mph 1013.5mb 74f
10:20pm 8 14 mph 1013.5mb 73f
10:10pm 6 11 mph 1012.9mb 72f
10:00pm 7 9 mph 1012.9mb 72f
9:50pm 3 8 mph 1013.2mb 74f
9:40pm 2 7 mph 1013.2mb 74f
9:30pm 3 8 mph 1012.5mb 75f
9:20pm 2 8 mph 1013.5mb 75f
9:10pm 3 9 mph 1013.9mb 75f
12:00pm 2 9 mph 1019.6mb 76f
11:00am 3 8 mph 1019.6mb 71f
10:50am 2 9 mph 1019.3mb 70f
10:40am 2 8 mph 1019.3mb 69f
10:30am 3 9 mph 1019.6mb 69f
10:20am 2 8 mph 1019.6mb 68f
10:10am 2 9 mph 1020mb 67f
10:00am 3 10 mph 1020mb 67f
9:59am 3 10 mph 1020.3mb 66f
9:50am 3 7 mph 1020mb 65f
9:40am 3 8 mph 1019.6mb 64f
9:30am 2 9 mph 1020mb 64f
9:20am 2 8 mph 1020.3mb 64f
9:10am 3 9 mph 1020.3mb 64f
9:00am 2 8 mph 1020.3mb 63f
8:59am 5 13 mph 1020.3mb 63f
8:50am 2 9 mph 1020.7mb 63f
8:40am 5 8 mph 1020.7mb 62f
8:30am 2 9 mph 1021mb 62f
8:20am 3 13 mph 1021mb 62f
8:10am 3 9 mph 1021mb 62f
8:00am 2 6 mph 1020.7mb 61f
7:58am 3 8 mph 1021mb 61f
7:50am 2 7 mph 1020.3mb 61f
7:40am 2 8 mph 1020.3mb 61f
7:30am 2 7 mph 1021mb 61f
7:20am 2 6 mph 1021.3mb 61f
7:10am 3 8 mph 1021.3mb 61f
7:00am 3 8 mph 1020.7mb 61f
6:58am 2 9 mph 1021mb 61f
6:50am 2 7 mph 1020.3mb 61f
6:40am 2 8 mph 1020.3mb 61f
6:30am 3 9 mph 1020.7mb 61f
6:20am 3 7 mph 1021mb 61f
6:10am 3 8 mph 1021mb 61f
6:00am 5 9 mph 1021mb 61f
5:58am 2 10 mph 1020.7mb 61f
5:50am 3 8 mph 1020.7mb 61f
5:40am 2 9 mph 1020.3mb 62f
5:30am 2 10 mph 1020.3mb 62f
5:20am 3 10 mph 1020.3mb 62f
5:10am 2 8 mph 1020.3mb 62f
5:00am 3 10 mph 1021mb 62f
4:57am 2 10 mph 1021.3mb 62f
4:50am 2 6 mph 1021mb 62f
4:40am 3 7 mph 1021.3mb 62f
4:30am 2 8 mph 1021.3mb 62f
4:20am 2 7 mph 1021mb 62f
4:10am 2 7 mph 1020.7mb 62f
4:00am 3 7 mph 1020.7mb 62f
3:57am 2 8 mph 1020.7mb 62f
3:50am 2 6 mph 1020.7mb 62f
3:40am 3 7 mph 1020.7mb 62f
3:30am 3 7 mph 1020.7mb 62f
3:20am 3 8 mph 1021mb 62f
3:10am 2 7 mph 1021.3mb 62f
3:00am  -  7 mph 1021.3mb 62f
2:56am 2 9 mph 1021.3mb 62f
2:50am 1 5 mph 1021.7mb 62f
2:40am 2 9 mph 1021.7mb 62f
2:30am 2 7 mph 1021.7mb 62f
2:20am 2 5 mph 1021.7mb 63f
2:10am 2 6 mph 1021.7mb 63f
2:00am 1 7 mph 1021.7mb 63f
1:56am 2 8 mph 1021mb 63f
1:50am 2 7 mph 1021.7mb 63f
1:40am 3 8 mph 1021.7mb 63f
1:30am 3 7 mph 1021.7mb 63f
1:20am 2 5 mph 1021mb 63f
1:10am 2 6 mph 1021mb 63f
1:00am 1 7 mph 1021.3mb 64f
12:56am 1 7 mph 1021.3mb 63f
12:50am 1 5 mph 1021.3mb 63f
12:40am 2 5 mph 1021.7mb 64f
12:30am 1 3 mph 1022mb 64f
12:20am 2 3 mph 1022mb 64f
12:10am 2 5 mph 1022mb 64f
12:00am 2 7 mph 1021.7mb 64f
Sat 09/24 11:55pm 1 7 mph 1022mb 64f
11:50pm 1 3 mph 1021.7mb 64f
11:40pm 2 5 mph 1021.3mb 64f
11:30pm 1 5 mph 1021.3mb 64f
11:20pm 1 3 mph 1021.3mb 64f
11:10pm 3 5 mph 1021.3mb 65f
11:00pm 2 5 mph 1021.3mb 65f
10:55pm 1 5 mph 1021.7mb 65f
10:50pm 2 5 mph 1021.3mb 65f
10:40pm 2 5 mph 1021.3mb 65f
10:30pm 2 5 mph 1021.3mb 65f
10:20pm 2 5 mph 1021.3mb 65f
10:10pm 1 5 mph 1021.3mb 66f
10:00pm 2 6 mph 1021.3mb 66f
9:54pm 3 6 mph 1021.3mb 66f
9:50pm 2 6 mph 1021.3mb 66f
9:40pm 2 6 mph 1021.7mb 66f
9:30pm 3 6 mph 1022mb 67f
9:20pm 3 6 mph 1022mb 67f
9:10pm 2 6 mph 1022mb 67f
9:00pm 3 6 mph 1022mb 67f
8:54pm 3 7 mph 1022mb 67f
8:50pm 3 7 mph 1021.3mb 67f
8:40pm 3 6 mph 1021.3mb 67f
8:30pm 3 7 mph 1021mb 68f
8:20pm 2 5 mph 1021mb 68f
8:10pm 2 5 mph 1021mb 68f
8:00pm 2 5 mph 1021.3mb 68f
7:54pm 2 3 mph 1020.7mb 68f
7:50pm 2 3 mph 1021.3mb 68f
7:40pm 1 3 mph 1021.7mb 68f
7:30pm 1 3 mph 1021.3mb 69f
7:20pm 1 3 mph 1020.7mb 69f
7:10pm  -  3 mph 1021mb 69f
7:00pm 1 2 mph 1021.3mb 69f
6:53pm  -  6 mph 1020.7mb 70f
6:50pm  -  2 mph 1020.7mb 70f
6:40pm 2 3 mph 1021.3mb 71f
6:30pm 1 5 mph 1021mb 72f
6:20pm 2 6 mph 1021mb 73f
6:10pm 2 5 mph 1021.3mb 74f
6:00pm 3 5 mph 1021.3mb 74f
5:53pm 2 7 mph 1021.3mb 74f
5:50pm 3 6 mph 1021.3mb 74f
5:40pm 3 6 mph 1021.7mb 75f
5:30pm 1 7 mph 1021.3mb 76f
5:20pm 2 5 mph 1021.7mb 76f
5:10pm 3 7 mph 1021mb 75f
5:00pm 3 6 mph 1021.7mb 75f
4:52pm 2 9 mph 1021mb 75f
4:50pm 3 7 mph 1021mb 75f
4:40pm 2 7 mph 1021mb 75f
4:30pm 6 8 mph 1021.7mb 75f
4:20pm 3 7 mph 1021.3mb 75f
4:10pm 1 9 mph 1021.3mb 75f
4:00pm  -  8 mph 1021.7mb 75f
3:52pm 2 9 mph 1022mb 75f
3:50pm 5 9 mph 1021.3mb 75f
3:40pm 5 8 mph 1021.3mb 74f
3:30pm 2 6 mph 1022.4mb 71f
3:20pm 2 6 mph 1021.7mb 70f
3:10pm 2 5 mph 1022.4mb 71f
3:00pm 2 5 mph 1021.7mb 71f
2:51pm 3 8 mph 1022mb 69f
2:50pm 3 6 mph 1022.4mb 69f
2:40pm 1 8 mph 1022mb 70f
2:30pm 1 6 mph 1022.4mb 74f
2:20pm 1 2 mph 1023mb 74f
2:10pm 2 7 mph 1022mb 73f
2:00pm 2 7 mph 1023mb 74f
1:51pm 5 9 mph 1022.7mb 74f
1:50pm 5 8 mph 1022.7mb 74f
1:40pm 3 7 mph 1022.7mb 73f
1:30pm 3 9 mph 1023mb 73f
1:20pm 1 8 mph 1022.7mb 73f
1:10pm 2 5 mph 1023.4mb 72f
1:00pm  -  7 mph 1023.4mb 73f
12:50pm 1 6 mph 1022.7mb 71f
12:40pm 3 8 mph 1023.4mb 70f
12:30pm 2 6 mph 1023.7mb 71f
12:20pm 3 9 mph 1023.4mb 70f
12:10pm 5 9 mph 1022.7mb 69f
12:00pm 3 8 mph 1023mb 70f
11:50am 2 10 mph 1023.7mb 70f
11:40am 3 8 mph 1023.7mb 69f
11:30am 1 6 mph 1023.7mb 69f
11:20am 1 9 mph 1023.7mb 68f
11:10am 2 10 mph 1023.4mb 68f
11:00am 3 7 mph 1023.4mb 67f
10:50am 2 9 mph 1024mb 67f
10:40am 3 9 mph 1023.4mb 66f
10:30am 3 9 mph 1023.4mb 66f
10:20am 2 8 mph 1023.4mb 66f
10:10am 1 6 mph 1023.4mb 66f
10:00am 2 8 mph 1023.4mb 65f
9:50am 2 9 mph 1023.4mb 65f
9:49am 3 10 mph 1024mb 64f
9:40am 2 10 mph 1023.4mb 64f
9:30am 2 7 mph 1023mb 63f
9:20am 3 8 mph 1023.4mb 63f
9:10am 2 8 mph 1023.7mb 62f
9:00am 5 9 mph 1024mb 62f
8:50am 5 9 mph 1024mb 62f
8:49am 5 9 mph 1023mb 62f
8:40am 3 7 mph 1023.7mb 62f
8:30am 3 9 mph 1023mb 61f
8:20am 3 8 mph 1023mb 60f
8:10am 3 8 mph 1023.4mb 60f
8:00am 2 7 mph 1023.4mb 60f
7:50am 3 7 mph 1023.7mb 60f
7:48am 3 8 mph 1023mb 60f
7:40am 3 7 mph 1023.7mb 59f
7:30am 2 6 mph 1023.4mb 59f
7:20am 3 8 mph 1023mb 59f
7:10am 2 6 mph 1022.7mb 59f
7:00am 3 7 mph 1022.4mb 59f
6:50am 3 6 mph 1022.7mb 59f
6:48am 3 8 mph 1022.4mb 59f
6:40am 3 6 mph 1023.4mb 59f
6:30am 3 8 mph 1023mb 59f
6:20am 1 7 mph 1023mb 59f
6:10am 3 6 mph 1023mb 59f
6:00am 3 6 mph 1022.4mb 59f
5:50am 2 3 mph 1022mb 59f
5:48am 2 6 mph 1022.4mb 59f
5:40am 2 6 mph 1022mb 59f
5:30am 2 5 mph 1022mb 59f
5:20am 2 3 mph 1022.4mb 59f
5:10am  -  3 mph 1022.7mb 59f
5:00am 1 5 mph 1022.4mb 60f
4:50am 2 7 mph 1021.7mb 60f
4:47am 3 7 mph 1021.7mb 60f
4:40am 2 6 mph 1021.7mb 60f
4:30am 3 7 mph 1022mb 60f
4:20am 5 7 mph 1022mb 60f
4:10am 3 6 mph 1021.7mb 60f
4:00am 5 7 mph 1021.3mb 60f
3:50am 3 6 mph 1021mb 61f
3:47am 3 9 mph 1021mb 61f
3:40am 2 9 mph 1021mb 61f
3:30am 5 7 mph 1021.7mb 61f
3:20am 3 7 mph 1021.7mb 61f
3:10am 5 7 mph 1021.7mb 61f
3:00am 3 8 mph 1021.7mb 61f
2:50am 5 7 mph 1021.3mb 61f
2:46am 3 8 mph 1021mb 61f
2:40am 3 8 mph 1021mb 61f
2:30am 3 7 mph 1021mb 61f
2:20am 2 7 mph 1021.3mb 61f
2:10am 3 8 mph 1021.7mb 61f
2:00am 2 6 mph 1022mb 61f
1:50am 2 7 mph 1022mb 61f
1:46am 2 10 mph 1021.3mb 61f
1:40am 5 8 mph 1021.7mb 61f
1:30am 3 8 mph 1021.7mb 61f
1:20am 5 7 mph 1021.7mb 61f
1:10am 2 9 mph 1021.7mb 62f
1:00am 5 9 mph 1021.3mb 62f
12:50am 5 10 mph 1021.3mb 62f
12:46am 5 9 mph 1021.3mb 62f
12:40am 5 9 mph 1021.3mb 62f
12:30am 6 9 mph 1021mb 62f
12:20am 5 8 mph 1021mb 62f
12:10am 5 9 mph 1021.3mb 63f
12:00am 5 7 mph 1021.3mb 63f
Fri 09/23 11:50pm 5 9 mph 1021.7mb 63f
11:45pm 3 9 mph 1021.3mb 63f
11:40pm 5 9 mph 1021.7mb 64f
11:30pm 3 7 mph 1022mb 64f
11:20pm 3 8 mph 1022mb 64f
11:10pm 5 7 mph 1021.7mb 64f
11:00pm 3 7 mph 1021.7mb 64f
10:50pm 3 7 mph 1021.7mb 64f
10:45pm 3 8 mph 1021mb 65f
10:40pm 3 7 mph 1021.7mb 65f
10:30pm 3 7 mph 1021.7mb 65f
10:20pm 3 7 mph 1021.7mb 65f
10:10pm 2 5 mph 1021.3mb 65f
10:00pm 3 7 mph 1021.3mb 65f
9:50pm 5 8 mph 1021mb 66f
9:44pm 3 8 mph 1020.3mb 66f
9:40pm 3 8 mph 1020.7mb 66f
9:30pm 3 6 mph 1020.3mb 66f
9:20pm 3 6 mph 1020.3mb 66f
9:10pm 3 6 mph 1020.3mb 67f
9:00pm 3 7 mph 1020.7mb 67f
8:50pm 5 9 mph 1021mb 67f
8:44pm 5 11 mph 1021mb 67f
8:40pm 3 7 mph 1020.7mb 67f
8:30pm 3 9 mph 1020.7mb 68f
8:20pm 5 8 mph 1020.7mb 68f
8:10pm 6 10 mph 1020.7mb 68f
8:00pm 3 11 mph 1020.7mb 69f
7:50pm 3 9 mph 1020.3mb 69f
7:44pm 6 11 mph 1020mb 70f
7:40pm 5 9 mph 1020mb 70f
7:30pm 6 10 mph 1019.6mb 70f
7:20pm 6 11 mph 1019.6mb 70f
7:10pm 3 9 mph 1020mb 70f
7:00pm 5 7 mph 1020.3mb 70f
6:50pm 3 8 mph 1020mb 70f
6:43pm 2 10 mph 1019.6mb 70f
6:40pm 5 9 mph 1019.3mb 70f
6:30pm 3 9 mph 1019.3mb 71f
6:20pm 5 8 mph 1019.6mb 71f
6:10pm 3 8 mph 1020mb 71f
6:00pm 5 10 mph 1019.6mb 71f
5:50pm 5 9 mph 1019.3mb 72f
5:43pm 3 13 mph 1020mb 72f
5:40pm 3 9 mph 1020mb 72f
5:30pm 5 9 mph 1020mb 72f
5:20pm 5 11 mph 1019mb 72f
5:10pm 3 10 mph 1019.6mb 73f
5:00pm 6 10 mph 1019.3mb 73f
4:50pm 7 13 mph 1018.6mb 73f
4:42pm 9 18 mph 1019.3mb 73f
4:40pm 10 16 mph 1019.3mb 73f
4:30pm 14 18 mph 1018.6mb 73f
4:20pm 13 16 mph 1019.3mb 73f
4:10pm 10 15 mph 1018.6mb 73f
3:42pm 9 11 mph 1019mb 74f
3:00pm 7 11 mph 1018.6mb 74f
2:50pm 8 10 mph 1019.6mb 73f
2:42pm 9 11 mph 1019.6mb 72f
2:40pm 8 11 mph 1019.3mb 72f
2:30pm 8 10 mph 1019.3mb 73f
2:20pm 7 8 mph 1019.6mb 74f
2:10pm 5 8 mph 1018.6mb 74f
2:00pm 6 9 mph 1019.6mb 73f
1:50pm 7 9 mph 1019.6mb 73f
1:41pm 7 11 mph 1019.3mb 73f
1:40pm 7 10 mph 1019mb 73f
1:30pm 7 10 mph 1019.6mb 73f
1:20pm 8 11 mph 1020mb 72f
1:10pm 7 10 mph 1019.3mb 72f
1:00pm 8 10 mph 1019.6mb 72f
12:50pm 8 10 mph 1020.3mb 71f
12:41pm 6 10 mph 1020.3mb 72f
12:40pm 6 8 mph 1020.3mb 72f
12:30pm 5 8 mph 1019.6mb 72f
12:20pm 3 9 mph 1019.3mb 72f
12:10pm 3 9 mph 1019.6mb 71f
12:00pm 5 8 mph 1020.3mb 71f
11:50am 6 10 mph 1020.3mb 71f
11:40am 5 8 mph 1020mb 71f
11:30am 6 9 mph 1020mb 70f
11:20am 6 10 mph 1019.6mb 70f
11:10am 6 8 mph 1019.6mb 70f
11:00am 3 9 mph 1019.6mb 70f
10:50am 7 9 mph 1019.6mb 70f
10:40am 3 9 mph 1020mb 70f
10:30am 3 8 mph 1020mb 70f
10:20am 3 8 mph 1020.3mb 70f
10:10am 5 7 mph 1020.3mb 69f
10:00am 5 9 mph 1020.3mb 69f
9:50am 6 9 mph 1020.3mb 71f
9:40am 5 7 mph 1019.6mb 70f
9:39am 5 7 mph 1020.3mb 70f
9:30am 3 5 mph 1020mb 70f
9:20am 2 5 mph 1019.6mb 70f
9:10am 2 5 mph 1019mb 71f
9:00am 2 5 mph 1018.6mb 71f
8:50am 2 6 mph 1018.6mb 71f
8:40am 3 7 mph 1018.6mb 71f
8:39am 3 11 mph 1019.6mb 71f
8:30am 2 6 mph 1019.3mb 71f
8:20am 6 9 mph 1019.3mb 71f
8:10am 7 11 mph 1019.3mb 71f
8:00am 8 10 mph 1019.3mb 71f
7:50am 5 9 mph 1019.3mb 71f
7:40am 7 9 mph 1019mb 71f
7:39am 5 9 mph 1019mb 71f
7:30am 5 6 mph 1019mb 71f
7:20am 2 6 mph 1019mb 71f
7:10am 3 7 mph 1018.6mb 70f
7:00am 6 8 mph 1018.3mb 70f
6:50am 1 3 mph 1018.3mb 69f
6:40am  -  2 mph 1018.3mb 69f
6:38am  -  3 mph 1017.6mb 69f
6:30am  -  1 mph 1017.9mb 69f
6:20am  -  2 mph 1017.9mb 69f
6:10am  -  3 mph 1017.6mb 69f
6:00am  -  1 mph 1017.3mb 69f
5:50am  -  1 mph 1017.3mb 69f
5:40am  -  2 mph 1017.3mb 69f
5:38am  -  2 mph 1017.6mb 69f
5:30am 1 2 mph 1017.3mb 70f
5:20am  -  2 mph 1017.6mb 70f
5:10am 1 2 mph 1017.6mb 71f
5:00am 1 2 mph 1017.9mb 71f
4:50am  -  1 mph 1017.9mb 71f
4:40am  -  1 mph 1017.9mb 71f
4:37am  -  3 mph 1017.9mb 71f
4:30am  -  3 mph 1017.6mb 71f
4:20am 2
mph
1017.3mb 71f
4:10am 2
mph
1016.9mb 71f
4:00am 1 2 mph 1016.9mb 71f
3:50am  -  1 mph 1016.9mb 71f
3:40am  -  mph 1017.3mb 71f
3:37am  -  8 mph 1016.9mb 71f
3:30am  -  1 mph 1017.6mb 71f
3:20am  -  2 mph 1017.6mb 72f
3:10am 1 2 mph 1017.6mb 72f
3:00am 2 3 mph 1017.6mb 71f
2:50am 5 8 mph 1017.3mb 71f
2:40am 2 3 mph 1017.3mb 71f
2:37am 1 3 mph 1017.6mb 71f
2:30am 1 2 mph 1016.9mb 70f
2:20am 1 2 mph 1016.9mb 70f
2:10am  -  2 mph 1016.9mb 70f
2:00am 1 3 mph 1017.3mb 70f
1:50am 1 2 mph 1017.3mb 71f
1:40am  -  2 mph 1017.3mb 71f
1:36am 1 5 mph 1016.9mb 71f
1:30am 1 3 mph 1017.3mb 71f
1:20am 2 3 mph 1016.6mb 71f
1:10am  -  1 mph 1016.6mb 72f
1:00am  -  5 mph 1016.9mb 73f
12:50am  -  2 mph 1017.3mb 73f
12:40am 1 3 mph 1016.9mb 73f
12:36am 2 8 mph 1016.9mb 73f
12:30am  -  2 mph 1016.6mb 73f
12:20am  -  5 mph 1016.6mb 73f
12:10am 2 3 mph 1017.3mb 73f
Thu 09/22 11:35pm  -  5 mph 1017.6mb 73f
11:00pm  -  2 mph 1016.9mb 74f
10:50pm  -  1 mph 1017.3mb 74f
10:40pm  -  2 mph 1017.6mb 74f
10:35pm  -  2 mph 1017.3mb 74f
10:30pm  -  1 mph 1016.9mb 74f
10:20pm  -  2 mph 1016.6mb 74f
10:10pm 1 2 mph 1017.6mb 75f
10:00pm  -  1 mph 1017.3mb 75f
9:50pm  -  2 mph 1016.6mb 75f
9:40pm  -  2 mph 1017.3mb 75f
9:35pm  -  3 mph 1017.3mb 75f
9:30pm  -  2 mph 1017.3mb 75f
9:20pm  -  2 mph 1016.6mb 75f
9:10pm  -  3 mph 1016.9mb 75f
9:00pm  -  3 mph 1017.3mb 75f
8:50pm  -  3 mph 1016.6mb 75f
8:40pm  -  1 mph 1017.3mb 75f
8:34pm  -  3 mph 1016.6mb 75f
8:30pm  -  2 mph 1017.3mb 75f
8:20pm  -  3 mph 1016.6mb 76f
8:10pm 2
mph
1016.6mb 76f